Find Starlink 6192

NORAD ID: 56903 Int'l Des: 2023-083 Owner: SPXS Country: US Constellation: starlink operational
LEOCIRCULAR

Live Position

Loading 3D Globe...

About Starlink 6192

Description loading...

Upcoming Passes

Passes for default location (London). Set your location on the main map for personalized predictions.

Altitude History

Loading altitude history...

Two-Line Element Set

1 56903U 23083AD 26106.75047677 .00000080 00000-0 12445-4 0 9995
2 56903 43.0024 226.6247 0001528 269.0486 91.0190 15.27578075157604
Epoch: Apr 16, 2026 • Age: 15 hours

Current Status

Altitude 495.1 km
Velocity 7.62 km/s
Sub-Earth Point -42.47°S, 135.89°E
Launch Date Jun 12, 2023
Age 2.8 years
Type internet

Technical Details

Classification Payload
Mass 305.00 kg
Dry Mass 290.00 kg
Total Mass 305.00 kg
Length 0.20 m
Diameter 2.80 m
Span 9.00 m
Shape Box + pan
Manufacturer SPXS
Bus Type Starlink
Phase Status In Orbit
Owner/State SPXS/US

Most Searched